GW4256 Weather Reports


time (UTC)temp
C
wind
direction
speed
KPH
gust
KPH
rain 1hr
cm
rain 24hr
cm
rain mn
cm
humidity
%
barometer
mb
20260507224519 14 314 1.6 17.7 0.00 0.15 0.00 48 1011.3
20260507223021 15 342 4.8 16.1 0.00 0.20 0.00 47 1011.2
20260507221505 15 358 4.8 12.9 0.00 0.20 0.00 44 1011.1
20260507220019 16 223 1.6 11.3 0.00 0.20 0.00 47 1010.8
20260507214512 15 338 1.6 12.9 0.00 0.20 0.00 46 1010.7
20260507213017 16 25 6.4 16.1 0.00 0.20 0.00 45 1010.6
20260507211522 16 305 6.4 14.5 0.00 0.23 0.00 43 1010.2
20260507210008 16 124 4.8 12.9 0.00 0.23 0.00 44 1010.3
20260507204509 16 353 4.8 22.5 0.00 0.23 0.00 43 1010.2
20260507203027 17 246 4.8 17.7 0.00 0.23 0.00 44 1010.2
20260507201522 16 342 6.4 20.9 0.00 0.23 0.00 46 1010.3
20260507200028 17 159 4.8 24.1 0.00 0.23 0.00 47 1010.1
20260507194509 17 34 6.4 20.9 0.00 0.23 0.00 47 1010.4
20260507193028 16 155 6.4 19.3 0.00 0.23 0.00 51 1010.7
20260507191521 18 72 8.0 27.4 0.00 0.23 0.00 47 1010.6
20260507190026 16 22 3.2 19.3 0.00 0.23 0.00 53 1010.8
20260507184524 17 27 1.6 11.3 0.00 0.23 0.00 49 1010.9
20260507183014 18 37 6.4 12.9 0.00 0.23 0.00 50 1010.8
20260507181518 16 58 3.2 12.9 0.00 0.23 0.00 54 1011.0
20260507180005 16 358 1.6 12.9 0.00 0.23 0.00 52 1011.2
20260507174504 16 18 3.2 14.5 0.00 0.23 0.00 52 1011.3
20260507173008 16 91 1.6 9.7 0.00 0.23 0.00 55 1011.3
20260507171517 15 105 1.6 11.3 0.00 0.23 0.00 57 1011.6
20260507170039 15 278 1.6 14.5 0.00 0.23 0.00 60 1011.9
20260507164504 15 207 0.0 4.8 0.00 0.23 0.00 62 1011.9
20260507163008 14 146 1.6 8.0 0.00 0.23 0.00 66 1012.2
20260507161512 13 173 3.2 6.4 0.00 0.23 0.00 67 1012.3
20260507160018 13 169 0.0 3.2 0.00 0.23 0.00 65 1012.6
20260507154523 13 64 0.0 3.2 0.00 0.23 0.00 68 1012.8
20260507153009 12 358 1.6 8.0 0.00 0.23 0.00 69 1013.0
20260507151511 12 20 1.6 8.0 0.00 0.23 0.00 70 1012.9
20260507150031 12 353 1.6 11.3 0.00 0.23 0.00 72 1013.0
20260507144520 12 360 3.2 8.0 0.00 0.23 0.00 75 1013.1
20260507143028 12 314 3.2 8.0 0.00 0.23 0.00 75 1013.0
20260507141508 11 356 3.2 8.0 0.00 0.23 0.00 77 1013.1
20260507140018 11 44 1.6 4.8 0.00 0.25 0.00 81 1013.5
20260507134520 11 351 0.0 3.2 0.00 0.25 0.00 83 1013.7
20260507133024 11 58 1.6 6.4 0.00 0.25 0.00 83 1013.6
20260507131533 11 1 1.6 8.0 0.00 0.28 0.00 83 1013.6
20260507130014 11 62 1.6 8.0 0.00 0.38 0.00 84 1013.6
20260507124517 11 1 1.6 8.0 0.00 0.43 0.00 85 1013.6
20260507123020 11 1 0.0 4.8 0.00 0.46 0.00 84 1013.5
20260507121526 12 360 1.6 3.2 0.00 0.46 0.00 87 1013.3
20260507120037 11 157 0.0 3.2 0.00 0.46 0.00 92 1013.2
20260507114515 11 296 0.0 0.0 0.00 0.46 0.00 94 1013.4
20260507113019 11 118 0.0 0.0 0.00 0.53 0.00 94 1013.0
20260507111524 11 101 0.0 0.0 0.00 0.53 0.00 94 1012.9
20260507110024 11 101 0.0 0.0 0.00 0.61 0.00 94 1012.9
20260507104526 11 101 0.0 0.0 0.00 0.71 0.00 94 1012.7
20260507103019 11 101 0.0 0.0 0.00 0.71 0.00 94 1012.5
20260507101524 11 137 0.0 0.0 0.00 0.71 0.00 94 1012.3
20260507100033 11 203 0.0 0.0 0.00 0.71 0.00 94 1012.1
20260507094524 11 352 0.0 3.2 0.00 0.71 0.00 94 1012.3
20260507093026 11 45 0.0 1.6 0.00 0.71 0.00 94 1012.3
20260507091520 11 45 0.0 3.2 0.00 0.71 0.00 93 1012.2
20260507090008 11 25 0.0 3.2 0.00 0.71 0.00 93 1012.7
20260507084511 11 353 0.0 3.2 0.00 0.71 0.00 93 1012.4
20260507083013 11 12 0.0 3.2 0.00 0.71 0.00 93 1012.8
20260507081534 11 1 0.0 3.2 0.00 0.71 0.00 93 1012.6
20260507080022 11 6 1.6 4.8 0.00 0.71 0.00 93 1012.2
20260507074513 11 360 0.0 3.2 0.00 0.71 0.00 93 1012.3
20260507073010 11 360 1.6 4.8 0.00 0.71 0.00 93 1012.1
20260507071517 12 343 0.0 0.0 0.00 0.71 0.00 94 1012.2
20260507070021 12 314 0.0 0.0 0.00 0.71 0.00 94 1012.3
20260507064524 12 314 0.0 0.0 0.00 0.71 0.00 94 1012.8
20260507063014 12 314 0.0 0.0 0.00 0.71 0.00 94 1012.1
20260507061514 12 301 0.0 0.0 0.00 0.71 0.00 94 1012.1
20260507060020 12 301 0.0 0.0 0.00 0.71 0.00 93 1012.4
20260507054522 12 179 0.0 0.0 0.00 0.71 0.00 92 1012.4
20260507053025 13 184 0.0 3.2 0.00 0.71 0.00 92 1012.4
20260507051512 13 160 0.0 3.2 0.00 0.71 0.00 92 1013.1
20260507050025 13 141 3.2 6.4 0.00 0.71 0.00 94 1012.8
20260507044523 13 197 0.0 3.2 0.00 0.71 0.00 95 1012.4
20260507043024 13 311 0.0 3.2 0.00 0.71 0.00 95 1012.3
20260507041526 13 344 0.0 3.2 0.00 0.71 0.00 95 1012.1
20260507040016 13 176 0.0 0.0 0.03 0.71 0.00 94 1011.4
20260507034520 13 176 0.0 0.0 0.05 0.71 0.71 94 1011.9
20260507033025 13 5 0.0 3.2 0.08 0.71 0.71 94 1012.9
20260507031527 13 185 1.6 3.2 0.13 0.71 0.71 94 1012.5
20260507030026 13 71 0.0 4.8 0.10 0.69 0.69 94 1013.7
20260507024517 14 137 0.0 1.6 0.08 0.66 0.66 93 1013.0
20260507023022 15 167 0.0 0.0 0.05 0.64 0.64 93 1012.9
20260507021524 15 342 0.0 3.2 0.00 0.58 0.58 93 1012.8
20260507020010 15 172 0.0 3.2 0.00 0.58 0.58 92 1012.1
20260507014523 15 333 1.6 4.8 0.00 0.58 0.58 92 1012.7
20260507013020 15 5 3.2 6.4 0.03 0.58 0.58 92 1012.2
20260507011505 15 13 0.0 3.2 0.03 0.58 0.58 91 1011.8
20260507010009 16 338 1.6 6.4 0.03 0.58 0.58 92 1011.6
20260507004516 16 352 1.6 3.2 0.03 0.58 0.58 91 1011.6
20260507003020 16 360 0.0 3.2 0.00 0.56 0.56 92 1011.5
20260507001526 16 360 0.0 6.4 0.00 0.56 0.56 93 1011.6
20260507000007 17 1 1.6 4.8 0.00 0.56 0.56 93 1011.4
20260506234513 17 318 0.0 1.6 0.00 0.56 0.56 93 1011.4
20260506233018 17 219 0.0 3.2 0.05 0.56 0.56 92 1011.4
20260506231519 17 323 0.0 3.2 0.05 0.56 0.56 92 1011.2
20260506230023 17 355 0.0 3.2 0.05 0.56 0.56 92 1011.4